Tiempo atmosférico en la estación meteorológica de El Pinar, Depósito, Santa Cruz de Tenerife (948 m.)



Fecha
DESCASC
Temp. máxima en grados centígrados (hora)
DESCASC
Temp. mínima en grados centígrados (hora)
DESCASC
Temp. media en grados centígrados
DESCASC
Racha de viento máxima en m/sg (hora)
DESCASC
Velocidad máxima media en intervalos de 10 minutos(hora)
DESCASC
Precipitaciones diarias en mm
DESCASC
Precipitaciones de 00:00 a 06:00 en mm
DESCASC
Precipitaciones de 06:00 a 12:00 en mm
DESCASC
Precipitaciones de 12:00 a 18:00 en mm
DESCASC
Precipitaciones de 18:00 a 24:00 en mm
DESCASC
13-01-2021 11.9 (10:50) 7.4 (07:20) 9.6 12.22 (13:20) 4.44 (11:30) 0 0 0 0 0
12-01-2021 11.6 (11:40) 7 (04:20) 9.3 8.33 (11:50) 3.89 (11:50) 0 0 0 0 0
11-01-2021 9.9 (10:20) 7.6 (06:30) 8.7 10 (03:20) 3.33 (03:20) 0 0 0 0 0
10-01-2021 10.7 (14:00) 7.3 (00:00) 9 13.33 (06:00) 4.72 (15:20) 10.6 2.2 2 4 2.4
09-01-2021 10.5 (12:50) 7.2 (00:00) 8.8 13.61 (15:00) 5 (14:10) 3.2 1.2 0.2 1.8 0
08-01-2021 11.6 (00:20) 7.4 (00:00) 9.5 18.06 (07:20) 6.94 (00:40) 69.2 28.2 23 15 3
07-01-2021 14.5 (12:50) 11.4 (00:00) 12.9 24.72 (10:50) 10.28 (10:50) 14.6 6 5.6 0.4 2.6
06-01-2021 15.6 (09:20) 12.8 (00:00) 14.2 19.44 (09:30) 8.33 (09:30) 26.8 2.8 17 2.2 4.8
05-01-2021 15.7 (12:40) 11.8 (00:00) 13.8 11.94 (01:00) 5.28 (22:40) 8.2 1.8 0.2 2 4.2
04-01-2021 14.1 (19:00) 11.5 (00:00) 12.8 16.39 (15:20) 9.72 (15:20) 7.8 2.6 0.6 0.2 4.4
03-01-2021 11.9 (23:50) 9.6 (00:00) 10.8 7.22 (18:40) 3.61 (19:20) 2.2 0.8 1.2 0 0.2
02-01-2021 10.7 (12:10) 8.9 (00:00) 9.8 7.78 (11:40) 3.06 (12:30) 3.2 1 1.6 0.6 0
01-01-2021 12.1 (12:10) 8.1 (00:00) 10.1 8.33 (20:20) 2.78 (01:40) 0 0 0 0 0
31-12-2020 12.3 (13:20) 6.6 (00:00) 9.5 5.83 (12:50) 2.78 (23:40) 2.6 0.2 2 0.4 0
30-12-2020 11.5 (15:10) 7 (00:00) 9.3 3.33 (04:10) 1.94 (04:00) 25.2 8.2 6.6 10.4 0
29-12-2020 13.6 (11:00) 6.6 (00:00) 10.1 8.61 (17:40) 3.06 (11:40) 43 0 0 3.8 39.2
28-12-2020 14.9 (15:30) 6.8 (00:00) 10.8 4.44 (12:10) 2.22 (23:50) 0.2 0.2 0 0 0
27-12-2020 15.6 (12:40) 7.9 (00:00) 11.8 4.72 (12:30) 3.06 (12:30) 10.8 0.2 0.2 0.2 10.2
26-12-2020 14.8 (14:00) 9.1 (00:00) 12 11.67 (03:20) 5.83 (02:40) 67.6 53.8 11.2 2.4 0.2
25-12-2020 14.3 (13:50) 10.7 (00:00) 12.5 13.89 (03:30) 5.83 (04:20) 30 0 0 0 30
24-12-2020 12.8 (09:40) 10.6 (00:00) 11.7 15.83 (10:40) 8.33 (10:40) 0 0 0 0 0
23-12-2020 14.6 (13:20) 7.8 (00:20) 11.2 10.56 (23:59) 5 (23:20) 0 0 0 0 0
21-12-2020 13.6 (09:20) 9.9 (00:00) 11.8 8.06 (11:20) 3.06 (11:20) 13.8 1 3.8 9 0
20-12-2020 15.8 (13:20) 10.6 (00:00) 13.2 7.78 (05:30) 3.06 (05:30) 0 0 0 0 0
19-12-2020 14.1 (15:00) 7.2 (00:00) 10.7 6.67 (22:50) 2.5 (15:10) 0.8 0.2 0.6 0 0
18-12-2020 15.5 (11:00) 6.9 (00:00) 11.2 7.5 (20:00) 3.06 (13:10) 0 0 0 0 0

Gráficas

Temp. máximas Temp. mínimas Temp. medias Precipitaciones Rachas de viento máximas Velocidades máximas media en intervalos de 10 minutos

Datos horarios

Fecha y hora oficial Temperatura (ºC) Velocidad del viento (km/h) Dirección del viento Racha (km/h) Dirección de racha Precipitación (mm) Presión (hPa) Tendencia (hPa) Humedad (%)
2021-01-16 23:00:00 9.7 8 Nordeste 28 Nordeste 0 -- -- 90
2021-01-16 22:00:00 10 10 Nordeste 30 Este 0 -- -- 93
2021-01-16 21:00:00 10 7 Nordeste 26 Este 0 -- -- 90
2021-01-16 20:00:00 9.9 8 Nordeste 22 Nordeste 0 -- -- 89
2021-01-16 19:00:00 9.6 5 Norte 15 Norte 0 -- -- 88
2021-01-16 18:00:00 11.1 4 Nordeste 22 Este 0 -- -- 87
2021-01-16 17:00:00 11.8 12 Sudeste 28 Sudeste 0 -- -- 78
2021-01-16 16:00:00 13.6 6 Este 22 Norte 0 -- -- 78
2021-01-16 15:00:00 13.4 8 Sudeste 18 Sudeste 0 -- -- 77
2021-01-16 14:00:00 12.6 8 Sudeste 20 Sudeste 0 -- -- 69
2021-01-16 13:00:00 12 10 Este 22 Sudeste 0 -- -- 81
2021-01-16 12:00:00 11.4 9 Este 35 Sudeste 0 -- -- 83
2021-01-16 11:00:00 10.3 17 Este 43 Sudeste 0 -- -- 87
2021-01-16 10:00:00 9.9 14 Este 41 Este 0 -- -- 89
2021-01-16 09:00:00 9.2 8 Nordeste 24 Nordeste 0 -- -- 91
2021-01-16 08:00:00 8.4 8 Nordeste 31 Este 0 -- -- 91
2021-01-16 07:00:00 8.8 9 Este 33 Nordeste 0 -- -- 94
2021-01-16 06:00:00 8 10 Nordeste 26 Nordeste 0 -- -- 91
2021-01-16 05:00:00 8.5 10 Nordeste 26 Este 0 -- -- 91
2021-01-16 04:00:00 9.1 10 Nordeste 31 Nordeste 0 -- -- 93
2021-01-16 03:00:00 9.2 9 Nordeste 27 Nordeste 0 -- -- 90
2021-01-16 02:00:00 9.1 10 Nordeste 27 Norte 0 -- -- 89
2021-01-16 01:00:00 9.1 12 Nordeste 28 Este 0 -- -- 90
2021-01-16 00:00:00 9 9 Nordeste 23 Este 0 -- -- 89
2021-01-15 23:00:00 9 6 Nordeste 21 Nordeste 0 -- -- 89
2021-01-15 22:00:00 9.2 8 Nordeste 30 Norte 0 -- -- 89
2021-01-15 21:00:00 9.3 10 Nordeste 26 Este 0 -- -- 91
2021-01-15 20:00:00 9.6 11 Nordeste 28 Nordeste 0 -- -- 93
2021-01-15 19:00:00 9.7 9 Nordeste 30 Este 0 -- -- 87
2021-01-15 18:00:00 10 11 Nordeste 30 Este 0 -- -- 93
2021-01-15 17:00:00 10.3 8 Este 28 Nordeste 0 -- -- 89
2021-01-15 16:00:00 10.6 8 Nordeste 27 Norte 0 -- -- 87
2021-01-15 15:00:00 10.5 10 Nordeste 41 Sudeste 0 -- -- 83
2021-01-15 14:00:00 10.4 15 Este 36 Sudeste 0 -- -- 84
2021-01-15 13:00:00 11.7 7 Oeste 24 Sudeste 0 -- -- 77
2021-01-15 12:00:00 10.6 9 Nordeste 25 Nordeste 0 -- -- 83
2021-01-15 11:00:00 9.7 8 Nordeste 45 Sudeste 0 -- -- 89
2021-01-15 10:00:00 10.1 11 Este 42 Sudeste 0 -- -- 85
2021-01-15 09:00:00 9.3 9 Nordeste 29 Nordeste 0 -- -- 89
2021-01-15 08:00:00 8.2 12 Norte 31 Nordeste 0 -- -- 88
2021-01-15 07:00:00 9 13 Norte 38 Nordeste 0 -- -- 94
2021-01-15 06:00:00 8.8 9 Noroeste 24 Noroeste 0 -- -- 81
2021-01-15 05:00:00 9 2 Oeste 27 Sur 0 -- -- 90
2021-01-15 04:00:00 9.2 10 Sur 26 Sudeste 0 -- -- 91
2021-01-15 03:00:00 9.2 6 Nordeste 27 Sudeste 0 -- -- 90
2021-01-15 02:00:00 9.1 11 Norte 35 Norte 0 -- -- 86
2021-01-15 01:00:00 9.1 11 Nordeste 34 Nordeste 0 -- -- 96
2021-01-15 00:00:00 9.2 13 Nordeste 36 Este 0 -- -- 91
2021-01-14 23:00:00 9.4 12 Nordeste 36 Nordeste 0 -- -- 95
2021-01-14 22:00:00 9.3 12 Nordeste 32 Este 0 -- -- 90
2021-01-14 21:00:00 9.5 12 Nordeste 31 Nordeste 0 -- -- 90
2021-01-14 20:00:00 9.4 10 Nordeste 30 Norte 0 -- -- 86
2021-01-14 19:00:00 9.9 7 Nordeste 32 Este 0 -- -- 89
2021-01-14 18:00:00 10.4 7 Nordeste 25 Este 0 -- -- 89
2021-01-14 17:00:00 11.5 7 Nordeste 20 Sur 0 -- -- 81
2021-01-14 16:00:00 12 6 Este 32 Este 0 -- -- 75
2021-01-14 15:00:00 11.3 6 Norte 39 Sudeste 0 -- -- 81
2021-01-14 14:00:00 12.1 12 Sudeste 40 Este 0 -- -- 78
2021-01-14 13:00:00 12.3 11 Este 37 Sudeste 0 -- -- 72
2021-01-14 12:00:00 12.4 14 Sudeste 30 Sudeste 0.2 -- -- 75
2021-01-14 11:00:00 11.7 14 Sudeste 36 Sudeste 0 -- -- 75
2021-01-14 10:00:00 10.9 10 Sudeste 28 Sudeste 0 -- -- 81
2021-01-14 09:00:00 9.4 6 Sudoeste 22 Norte 0 -- -- 88
2021-01-14 08:00:00 7.6 10 Norte 24 Norte 0 -- -- 94
2021-01-14 07:00:00 7.5 8 Norte 21 Norte 0 -- -- 93
2021-01-14 06:00:00 7.2 7 Norte 21 Norte 0 -- -- 95
2021-01-14 05:00:00 7.2 10 Norte 25 Norte 0 -- -- 94
2021-01-14 04:00:00 7.5 6 Norte 25 Nordeste 0 -- -- 92
2021-01-14 03:00:00 8.5 8 Nordeste 28 Nordeste 0 -- -- 92
2021-01-14 02:00:00 8.7 10 Nordeste 31 Nordeste 0 -- -- 93
2021-01-14 01:00:00 8 6 Norte 29 Nordeste 0 -- -- 92
2021-01-14 00:00:00 7.9 11 Nordeste 29 Norte 0 -- -- 82
2021-01-13 23:00:00 7.8 7 Norte 23 Nordeste 0 -- -- 91
2021-01-13 22:00:00 8.2 11 Norte 26 Nordeste 0 -- -- 90
2021-01-13 21:00:00 8.4 8 Norte 31 Nordeste 0 -- -- 91
2021-01-13 20:00:00 8.1 8 Norte 21 Nordeste 0 -- -- 92
2021-01-13 19:00:00 8.5 8 Norte 25 Norte 0 -- -- 91
2021-01-13 18:00:00 9.9 7 Norte 26 Nordeste 0 -- -- 86
2021-01-13 17:00:00 10.4 9 Nordeste 28 Este 0 -- -- 88
2021-01-13 16:00:00 10.5 8 Nordeste 32 Sudeste 0 -- -- 91
2021-01-13 15:00:00 10.4 9 Este 35 Sudeste 0 -- -- 91
2021-01-13 14:00:00 10.6 7 Este 44 Sudeste 0 -- -- 93
2021-01-13 13:00:00 11.3 15 Este 37 Sudeste 0 -- -- 91
2021-01-13 12:00:00 11.6 12 Este 39 Sudeste 0 -- -- 86
2021-01-13 11:00:00 11.7 10 Este 36 Sudeste 0 -- -- 85
2021-01-13 10:00:00 11.4 10 Nordeste 25 Nordeste 0 -- -- 77
2021-01-13 09:00:00 9 7 Norte 29 Noroeste 0 -- -- 84
2021-01-13 08:00:00 7.4 6 Norte 21 Nordeste 0 -- -- 94
2021-01-13 07:00:00 7.5 6 Norte 21 Norte 0 -- -- 92
2021-01-13 06:00:00 7.8 7 Norte 23 Norte 0 -- -- 93
2021-01-13 05:00:00 8.4 8 Norte 30 Nordeste 0 -- -- 94
2021-01-13 04:00:00 9 10 Nordeste 30 Nordeste 0 -- -- 97
2021-01-13 03:00:00 8.6 8 Nordeste 23 Nordeste 0 -- -- 95
2021-01-13 02:00:00 7.5 9 Norte 23 Noroeste 0 -- -- 92
2021-01-13 01:00:00 7.7 9 Norte 20 Noroeste 0 -- -- 92
2021-01-13 00:00:00 8.7 8 Nordeste 24 Nordeste 0 -- -- 96
2021-01-12 23:00:00 8.9 9 Nordeste 20 Nordeste 0 -- -- 95
2021-01-12 22:00:00 8.7 6 Norte 24 Nordeste 0 -- -- 90
2021-01-12 21:00:00 8.8 5 Norte 25 Este 0 -- -- 92
2021-01-12 20:00:00 8.9 7 Nordeste 20 Norte 0 -- -- 92
2021-01-12 19:00:00 9.1 7 Nordeste 22 Nordeste 0 -- -- 91
2021-01-12 18:00:00 9.9 7 Norte 26 Este 0 -- -- 86
2021-01-12 17:00:00 9.8 6 Nordeste 21 Sudeste 0 -- -- 90
2021-01-12 16:00:00 10.6 8 Este 24 Sudeste 0 -- -- 84
2021-01-12 15:00:00 11.3 8 Este 26 Norte 0 -- -- 86
2021-01-12 14:00:00 10.9 6 Este 19 Nordeste 0 -- -- 88
2021-01-12 13:00:00 10.3 5 Norte 18 Este 0 -- -- 88
2021-01-12 12:00:00 10.2 9 Sudeste 30 Este 0 -- -- 93
2021-01-12 11:00:00 11.3 7 Este 24 Norte 0 -- -- 82
2021-01-12 10:00:00 9.5 8 Nordeste 17 Este 0 -- -- 95
2021-01-12 09:00:00 7.8 5 Norte 17 Noroeste 0 -- -- 98
2021-01-12 08:00:00 7.1 7 Norte 18 Norte 0 -- -- 98
2021-01-12 07:00:00 7.4 5 Norte 21 Norte 0 -- -- 97
2021-01-12 06:00:00 7.4 6 Norte 15 Nordeste 0 -- -- 98
2021-01-12 05:00:00 7.3 5 Nordeste 17 Norte 0 -- -- 98
2021-01-12 04:00:00 7.3 7 Norte 19 Norte 0 -- -- 96
2021-01-12 03:00:00 7.8 7 Norte 23 Nordeste 0 -- -- 97
2021-01-12 02:00:00 7.4 6 Noroeste 22 Norte 0 -- -- 97
2021-01-12 01:00:00 7.6 8 Norte 24 Norte 0 -- -- 97
2021-01-12 00:00:00 8.1 6 Norte 20 Norte 0 -- -- 90
2021-01-11 23:00:00 8.1 7 Norte 20 Norte 0 -- -- 84
2021-01-11 22:00:00 7.9 6 Norte 19 Nordeste 0 -- -- 90
2021-01-11 21:00:00 8.1 8 Norte 30 Norte 0 -- -- 88
2021-01-11 20:00:00 8.2 8 Nordeste 23 Norte 0 -- -- 90
2021-01-11 19:00:00 7.8 7 Norte 24 Nordeste 0 -- -- 87
2021-01-11 18:00:00 8.9 7 Nordeste 25 Nordeste 0 -- -- 90
2021-01-11 17:00:00 9.2 8 Nordeste 24 Nordeste 0 -- -- 87
2021-01-11 16:00:00 9.7 7 Nordeste 24 Norte 0 -- -- 84
2021-01-11 15:00:00 9.5 8 Noroeste 21 Norte 0 -- -- 88
2021-01-11 14:00:00 9.6 7 Nordeste 21 Norte 0 -- -- 85
2021-01-11 13:00:00 9.3 8 Nordeste 20 Este 0 -- -- 90
2021-01-11 12:00:00 9.5 7 Norte 30 Noroeste 0 -- -- 90
2021-01-11 11:00:00 9.6 8 Nordeste 23 Norte 0 -- -- 85
2021-01-11 10:00:00 9.2 6 Nordeste 23 Norte 0 -- -- 88
2021-01-11 09:00:00 8.8 5 Nordeste 31 Nordeste 0 -- -- 87
2021-01-11 08:00:00 7.9 7 Nordeste 27 Nordeste 0 -- -- 94
2021-01-11 07:00:00 7.8 7 Nordeste 23 Nordeste 0 -- -- 94
2021-01-11 06:00:00 8.1 5 Norte 26 Norte 0 -- -- 94
2021-01-11 05:00:00 8 7 Nordeste 24 Nordeste 0 -- -- 96
2021-01-11 04:00:00 8.2 6 Nordeste 36 Nordeste 0 -- -- 97
2021-01-11 03:00:00 8.4 11 Nordeste 30 Nordeste 0 -- -- 92
2021-01-11 02:00:00 8.2 6 Nordeste 33 Norte 0 -- -- 90
2021-01-11 01:00:00 7.9 7 Nordeste 24 Norte 0 -- -- 92
2021-01-11 00:00:00 8.3 10 Norte 31 Nordeste 0 -- -- 93
2021-01-10 23:00:00 8.6 10 Norte 36 Noroeste 0.4 -- -- 94
2021-01-10 22:00:00 9 5 Norte 33 Norte 0.8 -- -- 98
2021-01-10 21:00:00 8.8 13 Norte 41 Norte 0.2 -- -- 94
2021-01-10 20:00:00 8.7 12 Norte 40 Norte 1 -- -- 96
2021-01-10 19:00:00 8.9 12 Norte 36 Norte 0 -- -- 97
2021-01-10 18:00:00 9 9 Norte 39 Norte 0.4 -- -- 98
2021-01-10 17:00:00 9.2 12 Norte 42 Norte 0.8 -- -- 97
2021-01-10 16:00:00 10 11 Norte 42 Norte 1 -- -- 97
2021-01-10 15:00:00 10.3 10 Norte 37 Norte 0 -- -- 95
2021-01-10 14:00:00 10.7 10 Nordeste 39 Noroeste 1.6 -- -- 94
2021-01-10 13:00:00 10.2 8 Norte 34 Norte 0.2 -- -- 92
2021-01-10 12:00:00 9.9 10 Norte 33 Norte 1 -- -- 97
2021-01-10 11:00:00 9.3 10 Norte 29 Norte 0.2 -- -- 94
2021-01-10 10:00:00 8.6 9 Norte 39 Noroeste 0.4 -- -- 97
2021-01-10 09:00:00 8.5 10 Norte 33 Noroeste 0.2 -- -- 97
2021-01-10 08:00:00 8.2 12 Norte 41 Norte 0 -- -- 97
2021-01-10 07:00:00 7.7 13 Norte 42 Norte 0.2 -- -- 92
2021-01-10 06:00:00 8 17 Norte 48 Norte 0 -- -- 97
2021-01-10 05:00:00 7.7 11 Norte 40 Norte 1 -- -- 95
2021-01-10 04:00:00 7.8 13 Noroeste 41 Norte 0.8 -- -- 96
2021-01-10 03:00:00 7.9 6 Nordeste 30 Nordeste 0.2 -- -- 93
2021-01-10 02:00:00 7.6 8 Noroeste 22 Este 0 -- -- 92
2021-01-10 01:00:00 7.7 4 Norte 30 Oeste 0.2 -- -- 94
2021-01-10 00:00:00 7.3 3 Norte 22 Norte 0 -- -- 91
2021-01-09 23:00:00 8 8 Norte 23 Nordeste 0 -- -- 91
2021-01-09 22:00:00 8 10 Norte 28 Norte 0 -- -- 87
2021-01-09 21:00:00 7.8 9 Norte 39 Norte 0 -- -- 88
2021-01-09 20:00:00 8 9 Norte 43 Norte 0 -- -- 87
2021-01-09 19:00:00 7.7 11 Norte 32 Norte 0 -- -- 87
2021-01-09 18:00:00 8.8 9 Norte 32 Norte 0 -- -- 87
2021-01-09 17:00:00 8.8 12 Norte 45 Noroeste 0.4 -- -- 89
2021-01-09 16:00:00 9.6 17 Norte 45 Noroeste 0.2 -- -- 84
2021-01-09 15:00:00 9.8 17 Norte 49 Noroeste 0 -- -- 88
2021-01-09 14:00:00 9.9 17 Norte 42 Norte 1.2 -- -- 83
2021-01-09 13:00:00 10.1 13 Norte 43 Nordeste 0 -- -- 83
2021-01-09 12:00:00 9.4 15 Norte 42 Norte 0 -- -- 83
2021-01-09 11:00:00 9.9 12 Norte 42 Norte 0 -- -- 81
2021-01-09 10:00:00 9 16 Norte 45 Norte 0 -- -- 86
2021-01-09 09:00:00 7.4 13 Norte 49 Norte 0.2 -- -- 91
2021-01-09 08:00:00 7.4 14 Norte 47 Norte 0 -- -- 94
2021-01-09 07:00:00 7.4 12 Norte 40 Oeste 0 -- -- 92
2021-01-09 06:00:00 7.2 12 Norte 38 Norte 0.2 -- -- 94
2021-01-09 05:00:00 7.6 13 Norte 42 Nordeste 0.4 -- -- 92
2021-01-09 04:00:00 7.7 9 Norte 44 Noroeste 0 -- -- 94
2021-01-09 03:00:00 7.8 14 Norte 33 Nordeste 0 -- -- 93
2021-01-09 02:00:00 7.6 11 Norte 39 Noroeste 0 -- -- 90
2021-01-09 01:00:00 7.5 11 Norte 39 Norte 0.6 -- -- 95
2021-01-09 00:00:00 8 11 Norte 42 Norte 0 -- -- 94
2021-01-08 23:00:00 7.9 8 Norte 37 Norte 0 -- -- 96
2021-01-08 22:00:00 7.6 12 Norte 44 Oeste 3 -- -- 98
2021-01-08 21:00:00 8.3 15 Norte 53 Norte 0 -- -- 93
2021-01-08 20:00:00 8.5 9 Noroeste 49 Noroeste 0 -- -- 94
2021-01-08 19:00:00 8.1 18 Noroeste 47 Noroeste 0 -- -- 94
2021-01-08 18:00:00 8.4 19 Noroeste 48 Noroeste 3.4 -- -- 98
2021-01-08 17:00:00 8.7 18 Noroeste 44 Noroeste 3.2 -- -- 98
2021-01-08 16:00:00 8.6 21 Noroeste 51 Noroeste 7.4 -- -- 99
2021-01-08 15:00:00 9.4 17 Noroeste 46 Noroeste 0.6 -- -- 92
2021-01-08 14:00:00 11.1 20 Noroeste 49 Noroeste 0 -- -- 87
2021-01-08 13:00:00 10.4 17 Noroeste 54 Noroeste 0.4 -- -- 95
2021-01-08 12:00:00 9.7 20 Noroeste 47 Noroeste 4.4 -- -- 100
2021-01-08 11:00:00 10 22 Noroeste 48 Noroeste 1 -- -- 96
2021-01-08 10:00:00 9.1 19 Noroeste 55 Oeste 8.4 -- -- 100
2021-01-08 09:00:00 9.3 16 Noroeste 55 Noroeste 0.4 -- -- 98
2021-01-08 08:00:00 9.2 21 Noroeste 65 Noroeste 6.6 -- -- 99
2021-01-08 07:00:00 9.7 24 Noroeste 57 Noroeste 2.2 -- -- 100
2021-01-08 06:00:00 9.8 24 Noroeste 57 Oeste 0.2 -- -- 99
2021-01-08 05:00:00 10.2 14 Noroeste 50 Noroeste 8.4 -- -- 100
2021-01-08 04:00:00 10.5 18 Noroeste 51 Noroeste 5.2 -- -- 100
2021-01-08 03:00:00 10.8 20 Noroeste 54 Noroeste 6 -- -- 100
2021-01-08 02:00:00 11.1 14 Noroeste 45 Noroeste 4.6 -- -- 100
2021-01-08 01:00:00 11.2 23 Noroeste 56 Noroeste 3.8 -- -- 96
2021-01-08 00:00:00 11.4 26 Noroeste 60 Oeste 0.8 -- -- 99
2021-01-07 23:00:00 12.1 24 Noroeste 54 Noroeste 0.8 -- -- 99
2021-01-07 22:00:00 12 20 Noroeste 62 Oeste 0.4 -- -- 95
2021-01-07 21:00:00 12.3 22 Oeste 58 Oeste 0.2 -- -- 98
2021-01-07 20:00:00 13.3 22 Oeste 58 Oeste 0.4 -- -- 100
2021-01-07 19:00:00 13 24 Oeste 58 Oeste 0 -- -- 100
2021-01-07 18:00:00 13.6 22 Oeste 58 Oeste 0.2 -- -- 100
2021-01-07 17:00:00 13.5 24 Oeste 66 Oeste 0 -- -- 100
2021-01-07 16:00:00 13.7 23 Oeste 65 Oeste 0 -- -- 100
2021-01-07 15:00:00 14.1 26 Oeste 66 Oeste 0 -- -- 100
2021-01-07 14:00:00 13.8 26 Oeste 68 Noroeste 0 -- -- 100
2021-01-07 13:00:00 14.3 31 Oeste 76 Oeste 0.2 -- -- 100
2021-01-07 12:00:00 13.9 36 Oeste 71 Oeste 0 -- -- 100
2021-01-07 11:00:00 13.9 30 Oeste 89 Oeste 0 -- -- 100
2021-01-07 10:00:00 13.3 28 Oeste 66 Oeste 0.4 -- -- 100
2021-01-07 09:00:00 13.3 28 Oeste 71 Oeste 0.2 -- -- 100
2021-01-07 08:00:00 14 26 Oeste 58 Oeste 3.4 -- -- 100
2021-01-07 07:00:00 14.3 23 Oeste 69 Oeste 1.6 -- -- 100
2021-01-07 06:00:00 13.6 26 Oeste 59 Oeste 0.2 -- -- 100
2021-01-07 05:00:00 14 22 Oeste 59 Oeste 0.2 -- -- 100
2021-01-07 04:00:00 13.8 21 Oeste 54 Oeste 4.4 -- -- 100
2021-01-07 03:00:00 13.4 24 Oeste 59 Oeste 0 -- -- 100
2021-01-07 02:00:00 13.4 26 Oeste 53 Noroeste 0.8 -- -- 99
2021-01-07 01:00:00 13.3 21 Oeste 51 Oeste 0.4 -- -- 98
2021-01-07 00:00:00 13.4 23 Oeste 50 Oeste 0 -- -- 97
2021-01-06 23:00:00 13.5 21 Oeste 54 Oeste 0.2 -- -- 96
2021-01-06 22:00:00 13.9 20 Oeste 54 Oeste 0.6 -- -- 100
2021-01-06 21:00:00 13.6 15 Oeste 42 Oeste 0.2 -- -- 99
2021-01-06 20:00:00 13.6 20 Oeste 46 Oeste 0.2 -- -- 97
2021-01-06 19:00:00 13.9 17 Oeste 41 Oeste 3.6 -- -- 99
2021-01-06 18:00:00 13.9 18 Oeste 44 Oeste 1.4 -- -- 99
2021-01-06 17:00:00 14.3 21 Oeste 52 Oeste 0 -- -- 95
2021-01-06 16:00:00 14.5 19 Oeste 55 Oeste 0 -- -- 97
2021-01-06 15:00:00 14.1 21 Oeste 52 Oeste 0.2 -- -- 96
2021-01-06 14:00:00 14.5 22 Oeste 53 Oeste 0 -- -- 96
2021-01-06 13:00:00 14.1 21 Oeste 53 Oeste 0.6 -- -- 100
2021-01-06 12:00:00 14.6 18 Oeste 50 Oeste 2 -- -- 100
2021-01-06 11:00:00 14.3 22 Oeste 61 Oeste 4 -- -- 100
2021-01-06 10:00:00 15.4 24 Oeste 70 Oeste 3.6 -- -- 100
2021-01-06 09:00:00 15.1 24 Oeste 57 Oeste 5.8 -- -- 100
2021-01-06 08:00:00 14.9 22 Oeste 55 Oeste 1.4 -- -- 100
2021-01-06 07:00:00 14.5 22 Oeste 70 Noroeste 0.2 -- -- 100
2021-01-06 06:00:00 14.6 21 Oeste 62 Oeste 0.4 -- -- 100
2021-01-06 05:00:00 14.5 26 Sudoeste 62 Oeste 0.2 -- -- 100
2021-01-06 04:00:00 14.3 20 Oeste 49 Oeste 1.2 -- -- 100
2021-01-06 03:00:00 13.9 15 Oeste 53 Oeste 0.4 -- -- 100
2021-01-06 02:00:00 13.5 20 Oeste 50 Oeste 0.2 -- -- 99
2021-01-06 01:00:00 13.2 18 Oeste 52 Sudoeste 0.4 -- -- 99
2021-01-06 00:00:00 12.8 14 Oeste 40 Noroeste 0 -- -- 96
2021-01-05 23:00:00 13.2 11 Oeste 40 Oeste 0.6 -- -- 100
2021-01-05 22:00:00 12.9 13 Oeste 33 Oeste 2.4 -- -- 99
2021-01-05 21:00:00 13.1 11 Oeste 33 Oeste 1.2 -- -- 98
2021-01-05 20:00:00 12.9 14 Noroeste 34 Oeste 0 -- -- 93
2021-01-05 19:00:00 13.3 14 Noroeste 34 Oeste 0 -- -- 90
2021-01-05 18:00:00 13.4 13 Noroeste 35 Oeste 0.2 -- -- 94
2021-01-05 17:00:00 14 11 Noroeste 33 Oeste 0 -- -- 91
2021-01-05 16:00:00 14.7 15 Oeste 40 Oeste 0 -- -- 86
2021-01-05 15:00:00 14.1 14 Oeste 37 Oeste 0.2 -- -- 92
2021-01-05 14:00:00 14.6 10 Oeste 29 Oeste 1.4 -- -- 96
2021-01-05 13:00:00 15.3 11 Oeste 30 Oeste 0.2 -- -- 89
2021-01-05 12:00:00 15.3 9 Oeste 26 Oeste 0 -- -- 91
2021-01-05 11:00:00 15.1 11 Oeste 23 Oeste 0 -- -- 90
2021-01-05 10:00:00 14.6 6 Oeste 20 Oeste 0 -- -- 95
2021-01-05 09:00:00 13.2 6 Oeste 16 Noroeste 0 -- -- 97
2021-01-05 08:00:00 12 4 Noroeste 22 Noroeste 0.2 -- -- 97
2021-01-05 07:00:00 12.3 8 Noroeste 24 Noroeste 0 -- -- 96
2021-01-05 06:00:00 12.2 8 Noroeste 29 Noroeste 0.2 -- -- 97
2021-01-05 05:00:00 12 11 Noroeste 30 Norte 0 -- -- 93
2021-01-05 04:00:00 12.3 12 Noroeste 35 Noroeste 0 -- -- 96
2021-01-05 03:00:00 12.1 10 Noroeste 34 Noroeste 0 -- -- 96
2021-01-05 02:00:00 12.3 10 Noroeste 43 Noroeste 0 -- -- 95
2021-01-05 01:00:00 12.4 18 Noroeste 43 Noroeste 1.6 -- -- 97
2021-01-05 00:00:00 12.4 8 Noroeste 27 Noroeste 0 -- -- 95
2021-01-04 23:00:00 12.2 12 Noroeste 40 Noroeste 0 -- -- 85
2021-01-04 22:00:00 12.6 15 Noroeste 41 Oeste 0 -- -- 80
2021-01-04 21:00:00 13.3 18 Noroeste 40 Noroeste 0 -- -- 75
2021-01-04 20:00:00 13.5 16 Noroeste 42 Noroeste 0.4 -- -- 91
2021-01-04 19:00:00 14.1 14 Oeste 57 Oeste 4 -- -- 100
2021-01-04 18:00:00 13.9 14 Oeste 46 Oeste 0 -- -- 100
2021-01-04 17:00:00 13.3 21 Oeste 50 Oeste 0 -- -- 100
2021-01-04 16:00:00 12.8 28 Oeste 59 Oeste 0.2 -- -- 92
2021-01-04 15:00:00 12.5 28 Oeste 55 Oeste 0 -- -- 100
2021-01-04 14:00:00 12.4 24 Oeste 51 Oeste 0 -- -- 100
2021-01-04 13:00:00 12.6 14 Oeste 35 Oeste 0 -- -- 100
2021-01-04 12:00:00 12.7 12 Oeste 29 Oeste 0.2 -- -- 100
2021-01-04 11:00:00 12.8 14 Oeste 30 Oeste 0 -- -- 100
2021-01-04 10:00:00 12.9 14 Oeste 29 Oeste 0 -- -- 100
2021-01-04 09:00:00 12.7 19 Oeste 30 Oeste 0 -- -- 100
2021-01-04 08:00:00 12.5 11 Oeste 24 Oeste 0 -- -- 100
2021-01-04 07:00:00 12.6 12 Oeste 24 Oeste 0.4 -- -- 100
2021-01-04 06:00:00 12.7 10 Oeste 27 Oeste 0.2 -- -- 100
2021-01-04 05:00:00 12 14 Oeste 29 Oeste 0.2 -- -- 100
2021-01-04 04:00:00 12.1 14 Oeste 27 Oeste 0.6 -- -- 99
2021-01-04 03:00:00 12.8 12 Noroeste 42 Oeste 0.6 -- -- 86
2021-01-04 02:00:00 11.5 7 Oeste 26 Oeste 0.4 -- -- 100
2021-01-04 01:00:00 11.8 11 Oeste 18 Oeste 0.6 -- -- 100
2021-01-04 00:00:00 11.9 6 Oeste 14 Oeste 0 -- -- 100
2021-01-03 23:00:00 11.5 5 Oeste 14 Oeste 0 -- -- 100
2021-01-03 22:00:00 11.6 5 Sudoeste 10 Oeste 0.2 -- -- 100
2021-01-03 21:00:00 11.6 4 Sudoeste 15 Oeste 0 -- -- 100
2021-01-03 20:00:00 11.5 5 Oeste 21 Oeste 0 -- -- 100
2021-01-03 19:00:00 11 9 Oeste 26 Oeste 0 -- -- 100
2021-01-03 18:00:00 10.8 11 Oeste 17 Oeste 0 -- -- 96
2021-01-03 17:00:00 11.2 3 Sudoeste 11 Sur 0 -- -- 99
2021-01-03 16:00:00 11.3 5 Sudeste 9 Sudeste 0 -- -- 99
2021-01-03 15:00:00 11.4 3 Sur 10 Sur 0 -- -- 100
2021-01-03 14:00:00 11.2 6 Sudeste 14 Sudeste 0 -- -- 100
2021-01-03 13:00:00 10.7 2 Sudeste 11 Sudeste 0 -- -- 100
2021-01-03 12:00:00 10.6 5 Este 13 Sudeste 0.2 -- -- 100
2021-01-03 11:00:00 10.5 3 Este 9 Sudeste 0 -- -- 100
2021-01-03 10:00:00 10 3 Nordeste 8 Nordeste 0.2 -- -- 100
2021-01-03 09:00:00 9.6 3 Norte 5 Nordeste 0.4 -- -- 100
2021-01-03 08:00:00 10.1 3 Sur 8 Sudeste 0.2 -- -- 100
2021-01-03 07:00:00 9.9 2 Noroeste 4 Noroeste 0.2 -- -- 100
2021-01-03 06:00:00 9.8 0 Calma 10 Norte 0.6 -- -- 100
2021-01-03 05:00:00 9.9 4 Noroeste 15 Sudeste 0.2 -- -- 100
2021-01-03 04:00:00 9.9 6 Este 16 Sudeste 0 -- -- 100
2021-01-03 03:00:00 10 10 Sudeste 20 Este 0 -- -- 100
2021-01-03 02:00:00 9.8 5 Este 17 Sudeste 0 -- -- 100
2021-01-03 01:00:00 9.8 9 Este 17 Este 0 -- -- 99
2021-01-03 00:00:00 9.8 7 Este 15 Sudeste 0 -- -- 99
2021-01-02 23:00:00 9.8 6 Sudeste 16 Sudeste 0 -- -- 100
2021-01-02 22:00:00 9.8 3 Este 13 Nordeste 0 -- -- 100
2021-01-02 21:00:00 9.8 4 Este 16 Sudeste 0 -- -- 100
2021-01-02 20:00:00 9.9 3 Este 15 Sudeste 0 -- -- 100
2021-01-02 19:00:00 9.9 4 Nordeste 10 Sudeste 0 -- -- 100
2021-01-02 18:00:00 10 5 Este 15 Sudeste 0 -- -- 100
2021-01-02 17:00:00 10 3 Nordeste 14 Sudeste 0 -- -- 100
2021-01-02 16:00:00 10.1 3 Sudeste 19 Sudeste 0 -- -- 100
2021-01-02 15:00:00 10.3 4 Este 9 Este 0 -- -- 100
2021-01-02 14:00:00 10.2 6 Este 16 Sudeste 0.6 -- -- 100
2021-01-02 13:00:00 10.3 4 Este 23 Sudeste 0 -- -- 100